Buffalo, MN

5:37 PM CDT on April 25, 2017 (GMT -0500)
Buffalo

Weather History for KCFE - November, 2013

Change the Weather History Date:

Wednesday, November 13, 2013

  Actual Average (KMIC) Record (KMIC)
Temperature  
Mean Temperature 36 °F -  
Max Temperature 50 °F 41 °F 72 °F (1999)
Min Temperature 21 °F 26 °F 17 °F (2012)
Degree Days  
Heating Degree Days 30    
Moisture  
Dew Point 24 °F    
Average Humidity 64    
Maximum Humidity 81    
Minimum Humidity 46    
Precipitation  
Precipitation 0.00 in - - ()
Sea Level Pressure  
Sea Level Pressure 30.05 in    
Wind  
Wind Speed 8 mph (South)    
Max Wind Speed 17 mph    
Max Gust Speed 23 mph    
Visibility 10 miles    
Events      
Averages and records for this station are not official NWS values.
T = Trace of Precipitation, MM = Missing Value Source: NWS Daily Summary

Daily Weather History Graph

Daily Weather History Graph

Search for Another Location

Airport or City:

Trip Planner

Search our weather history database for the weather conditions in past years. The results will help you decide how hot, cold, wet, or windy it might be!

Date:

Astronomy

Nov. 13, 2013 Rise Set
Actual Time 7:11 AM CST 4:47 PM CST
Civil Twilight 6:39 AM CST 5:19 PM CST
Nautical Twilight 6:03 AM CST 5:55 PM CST
Astronomical Twilight 5:29 AM CST 6:29 PM CST
Moon 2:44 PM CST (11/13) 2:54 AM CST (11/13)
Length of Visible Light 10h 40m
Length of Day
9h 36m
Waxing Gibbous, 85% of the Moon is Illuminated
Nov 13
Waxing Gibbous
Nov 17
Full
Nov 25
Last Quarter
Dec 2
New
Dec 9
First Quarter

Hourly Weather History & Observations

Time (CST) Temp. Windchill Dew Point Humidity Pressure Visibility Wind Dir Wind Speed Gust Speed Precip Events Conditions
12:16 AM 21.6 °F 14.0 °F 14.4 °F 74% 30.40 in 10.0 mi South 5.8 mph - N/A   Clear
12:35 AM 21.6 °F 14.0 °F 14.0 °F 73% 30.40 in 10.0 mi South 5.8 mph - N/A   Clear
12:56 AM 22.1 °F 14.7 °F 14.0 °F 71% 30.38 in 10.0 mi South 5.8 mph - N/A   Clear
1:16 AM 22.1 °F 13.7 °F 13.8 °F 70% 30.36 in 10.0 mi South 6.9 mph - N/A   Clear
1:36 AM 22.3 °F 14.9 °F 13.6 °F 69% 30.36 in 10.0 mi South 5.8 mph - N/A   Clear
1:56 AM 22.1 °F 13.7 °F 13.3 °F 69% 30.34 in 10.0 mi South 6.9 mph - N/A   Clear
2:16 AM 22.6 °F 14.3 °F 13.5 °F 68% 30.33 in 10.0 mi South 6.9 mph - N/A   Clear
2:36 AM 22.6 °F 13.4 °F 13.6 °F 68% 30.32 in 10.0 mi South 8.1 mph - N/A   Clear
2:56 AM 22.6 °F 12.6 °F 13.6 °F 68% 30.31 in 10.0 mi South 9.2 mph - N/A   Clear
3:16 AM 22.6 °F 14.3 °F 13.5 °F 68% 30.30 in 10.0 mi South 6.9 mph - N/A   Clear
3:36 AM 22.8 °F 14.5 °F 13.6 °F 68% 30.29 in 10.0 mi South 6.9 mph - N/A   Clear
3:56 AM 22.8 °F 14.5 °F 13.8 °F 68% 30.28 in 10.0 mi South 6.9 mph - N/A   Clear
4:16 AM 23.0 °F 13.9 °F 13.8 °F 68% 30.25 in 10.0 mi South 8.1 mph - N/A   Clear
4:36 AM 23.7 °F 13.3 °F 14.4 °F 67% 30.23 in 10.0 mi South 10.4 mph - N/A   Clear
4:55 AM 23.7 °F 13.3 °F 14.0 °F 66% 30.21 in 10.0 mi South 10.4 mph 16.1 mph N/A   Clear
5:16 AM 24.3 °F 14.6 °F 14.7 °F 67% 30.20 in 10.0 mi South 9.2 mph 18.4 mph N/A   Clear
5:36 AM 24.6 °F 15.1 °F 14.9 °F 67% 30.18 in 10.0 mi South 9.2 mph 16.1 mph N/A   Clear
5:55 AM 24.8 °F 16.9 °F 15.3 °F 67% 30.18 in 10.0 mi South 6.9 mph - N/A   Clear
6:16 AM 24.8 °F 16.1 °F 15.4 °F 68% 30.17 in 10.0 mi South 8.1 mph - N/A   Clear
6:36 AM 24.8 °F 17.9 °F 15.8 °F 69% 30.16 in 10.0 mi South 5.8 mph - N/A   Clear
6:55 AM 24.4 °F 14.9 °F 15.8 °F 70% 30.15 in 10.0 mi South 9.2 mph - N/A   Clear
7:16 AM 24.3 °F 15.4 °F 15.8 °F 70% 30.14 in 10.0 mi South 8.1 mph - N/A   Clear
7:36 AM 24.6 °F 16.7 °F 16.5 °F 71% 30.14 in 10.0 mi South 6.9 mph - N/A   Clear
7:56 AM 25.3 °F 17.6 °F 16.7 °F 70% 30.13 in 10.0 mi South 6.9 mph - N/A   Clear
8:16 AM 26.4 °F 17.3 °F 17.4 °F 69% 30.12 in 10.0 mi South 9.2 mph 16.1 mph N/A   Clear
8:36 AM 27.5 °F 16.8 °F 18.1 °F 68% 30.12 in 10.0 mi South 12.7 mph 16.1 mph N/A   Clear
8:56 AM 29.1 °F 18.9 °F 18.7 °F 65% 30.11 in 10.0 mi South 12.7 mph 17.3 mph N/A   Clear
9:15 AM 29.8 °F 20.3 °F 19.4 °F 65% 30.09 in 10.0 mi South 11.5 mph 19.6 mph N/A   Clear
9:36 AM 31.5 °F 22.9 °F 20.1 °F 63% 30.08 in 10.0 mi South 10.4 mph 20.7 mph N/A   Clear
9:56 AM 32.5 °F 24.2 °F 21.0 °F 63% 30.07 in 10.0 mi South 10.4 mph 17.3 mph N/A   Clear
10:15 AM 34.5 °F 27.3 °F 21.9 °F 60% 30.06 in 10.0 mi South 9.2 mph - N/A   Clear
10:36 AM 36.5 °F 27.8 °F 22.8 °F 58% 30.04 in 10.0 mi South 13.8 mph 20.7 mph N/A   Clear
10:56 AM 38.3 °F 30.1 °F 23.5 °F 55% 30.02 in 10.0 mi South 13.8 mph 20.7 mph N/A   Clear
11:15 AM 39.6 °F 33.5 °F 23.9 °F 54% 30.01 in 10.0 mi South 9.2 mph 18.4 mph N/A   Clear
11:36 AM 41.0 °F 33.1 °F 24.6 °F 52% 30.01 in 10.0 mi SSW 15.0 mph 20.7 mph N/A   Clear
11:56 AM 41.9 °F 34.0 °F 25.2 °F 52% 30.00 in 10.0 mi South 16.1 mph 20.7 mph N/A   Clear
12:15 PM 43.2 °F 35.3 °F 25.9 °F 51% 29.99 in 10.0 mi SSW 17.3 mph 23.0 mph N/A   Clear
12:36 PM 44.2 °F 37.3 °F 26.6 °F 50% 29.98 in 10.0 mi South 15.0 mph 21.9 mph N/A   Clear
12:56 PM 46.0 °F 39.9 °F 27.5 °F 48% 29.96 in 10.0 mi SSW 13.8 mph 18.4 mph N/A   Clear
1:16 PM 46.4 °F 40.1 °F 27.7 °F 48% 29.95 in 10.0 mi SSW 15.0 mph 20.7 mph N/A   Clear
1:36 PM 47.8 °F - 28.9 °F 48% 29.94 in 10.0 mi SSW 12.7 mph 20.7 mph N/A   Clear
1:56 PM 48.2 °F - 29.1 °F 48% 29.94 in 10.0 mi SSW 9.2 mph 17.3 mph N/A   Clear
2:16 PM 49.5 °F - 30.0 °F 47% 29.92 in 10.0 mi SSW 9.2 mph - N/A   Clear
2:36 PM 50.2 °F - 30.2 °F 46% 29.92 in 10.0 mi SSW 9.2 mph 19.6 mph N/A   Clear
2:56 PM 50.9 °F - 30.7 °F 46% 29.91 in 10.0 mi SSW 12.7 mph 19.6 mph N/A   Clear
3:16 PM 50.5 °F - 30.7 °F 47% 29.90 in 10.0 mi SSW 11.5 mph 19.6 mph N/A   Clear
3:36 PM 50.4 °F - 31.3 °F 48% 29.90 in 10.0 mi SSW 9.2 mph 19.6 mph N/A   Clear
3:56 PM 49.6 °F - 32.0 °F 51% 29.91 in 10.0 mi SSW 8.1 mph - N/A   Clear
4:16 PM 48.6 °F - 32.0 °F 53% 29.90 in 10.0 mi SSW 6.9 mph - N/A   Clear
4:36 PM 48.2 °F - 32.0 °F 54% 29.90 in 10.0 mi SSW 8.1 mph - N/A   Clear
4:56 PM 47.3 °F - 32.0 °F 55% 29.89 in 10.0 mi South 5.8 mph - N/A   Clear
5:16 PM 46.4 °F 43.5 °F 32.2 °F 58% 29.90 in 10.0 mi SSW 5.8 mph - N/A   Clear
5:35 PM 45.3 °F 44.0 °F 32.0 °F 60% 29.90 in 10.0 mi South 3.5 mph - N/A   Clear
5:56 PM 44.6 °F 43.1 °F 32.0 °F 61% 29.89 in 10.0 mi South 3.5 mph - N/A   Clear
6:16 PM 43.7 °F 41.1 °F 32.0 °F 63% 29.89 in 10.0 mi South 4.6 mph - N/A   Clear
6:35 PM 42.8 °F 40.1 °F 32.0 °F 66% 29.90 in 10.0 mi South 4.6 mph - N/A   Clear
6:56 PM 42.6 °F 39.9 °F 32.2 °F 67% 29.89 in 10.0 mi South 4.6 mph - N/A   Clear
7:16 PM 41.9 °F 40.0 °F 32.0 °F 68% 29.90 in 10.0 mi South 3.5 mph - N/A   Clear
7:35 PM 41.4 °F 39.4 °F 32.0 °F 69% 29.89 in 10.0 mi SSW 3.5 mph - N/A   Clear
7:56 PM 41.0 °F 37.1 °F 32.0 °F 70% 29.89 in 10.0 mi South 5.8 mph - N/A   Clear
8:16 PM 40.6 °F 37.5 °F 32.0 °F 71% 29.89 in 10.0 mi South 4.6 mph - N/A   Clear
8:35 PM 40.1 °F 36.9 °F 31.8 °F 72% 29.89 in 10.0 mi South 4.6 mph - N/A   Clear
8:56 PM 39.7 °F 36.5 °F 31.8 °F 73% 29.88 in 10.0 mi SSW 4.6 mph - N/A   Clear
9:16 PM 39.2 °F 37.0 °F 31.6 °F 74% 29.88 in 10.0 mi South 3.5 mph - N/A   Clear
9:35 PM 38.8 °F 36.5 °F 31.6 °F 75% 29.88 in 10.0 mi SSW 3.5 mph - N/A   Clear
9:56 PM 38.3 °F 35.9 °F 31.5 °F 76% 29.88 in 10.0 mi South 3.5 mph - N/A   Clear
10:16 PM 37.9 °F 35.5 °F 31.5 °F 77% 29.88 in 10.0 mi South 3.5 mph - N/A   Clear
10:35 PM 37.4 °F - 31.1 °F 78% 29.88 in 10.0 mi Calm Calm - N/A   Clear
10:56 PM 36.5 °F - 31.1 °F 81% 29.88 in 10.0 mi Calm Calm - N/A   Clear
11:16 PM 36.7 °F 34.1 °F 30.9 °F 80% 29.87 in 10.0 mi South 3.5 mph - N/A   Clear
11:35 PM 36.5 °F - 30.9 °F 80% 29.87 in 10.0 mi Calm Calm - N/A   Clear
11:56 PM 35.6 °F - 30.4 °F 81% 29.87 in 10.0 mi Calm Calm - N/A   Clear